Location: Casa Rossa
(45.2389°N, 12.2056°E)
Time: 23:24:53
(UTC+00:00)

Okean 2 - Pass Details

Date: 14 July 2020
Orbit: 559 x 578 km, 82.5° (Epoch: 14 August)

Event Time Altitude Azimuth Distance (km) Brightness Sun altitude
Rises 02:32:24 0° 351° (N) 2,764 7.5 -9.8°
Reaches altitude 10° 02:34:36 10° 353° (N) 1,861 6.6 -9.5°
Maximum altitude 02:38:42 83° 82° (E) 570 3.4 -9.0°
Drops below altitude 10° 02:42:46 10° 170° (S) 1,842 5.7 -8.4°
Sets 02:44:55 0° 171° (S) 2,732 6.5 -8.2°
